Hourly Weather Roundup
Issued by NWS Central Illinois

Home | Current Version | Previous Version | Text Only | Print | Product List | Glossary On
Versions: 1 2 3 4 5 6 7 8 9 10 11 12 13 14 15 16 17 18 19 20 21 22 23 24 25 26 27 28 29 30 31 32 33 34 35 36 37 38 39 40 41 42 43 44 45 46 47 48 49 50
535
NZUS43 KILX 231410
HWRILX

AREA WEATHER ROUNDUP
NATIONAL WEATHER SERVICE, LINCOLN IL
900 AM CDT THU MAR 23 2017


CITY           SKY/WX    TMP DP  RH WIND       PRES   REMARKS
BLOOMINGTON    PTSUNNY   35  23  61 SE13      30.37S WCI  26
CHAMPAIGN      CLOUDY    35  21  56 SE15      30.38R WCI  25
DECATUR        CLOUDY    37  21  52 SE10      30.37S WCI  30
EFFINGHAM      CLOUDY    37  25  61 E10       30.40R WCI  30
FLORA          CLOUDY    37  27  67 SE3       30.39R
GALESBURG      CLOUDY    37  24  60 SE14      30.29  WCI  28
JACKSONVILLE   LGT RAIN  35  31  87 SE13G21   30.32S WCI  26
LACON          MOSUNNY   34  26  71 SE12      30.36S WCI  26
LAWRENCEVILLE  MOSUNNY   39  22  50 E12       30.39F WCI  32
LITCHFIELD     RAIN      33  31  92 SE8       30.35R WCI  26
$$


CITY           SKY/WX    TMP DP  RH WIND       PRES   REMARKS
LINCOLN        LGT RAIN  37  26  63 SE7       30.37S WCI  32
MACOMB         CLOUDY    35  31  88 SE15      30.31F WCI  25
MATTOON        CLOUDY    37  22  54 SE10      30.37R WCI  30
MT CARMEL AP   PTSUNNY   39  20  47 SE12      30.39R WCI  32
OLNEY-NOBLE AP LGT RAIN  36  25  64 SE8       30.39S WCI  29
PARIS          CLOUDY    33  24  67 SE8       30.40R WCI  27
PEORIA         CLOUDY    37  23  56 SE12      30.34F WCI  29
PONTIAC        CLOUDY    33  26  77 SE15      30.39F WCI  23
RANTOUL        CLOUDY    35  25  67 SE13      30.39S WCI  26
SPRINGFIELD    LGT RAIN  37  28  70 SE10      30.35S WCI  30
TAYLORVILLE    DRIZZLE   35  26  70 SE9       30.36S WCI  28
$$

...REGIONAL REPORTS...


CITY           SKY/WX    TMP DP  RH WIND       PRES   REMARKS
CHICAGO O`HARE CLOUDY    35  19  52 SE14      30.40S WCI  26
KANKAKEE       CLOUDY    33  23  66 SE15      30.41S WCI  23
MOLINE         CLOUDY    37  22  54 SE14      30.29F WCI  28
MOUNT STERLING CLOUDY    34  31  87 SE14      30.28S WCI  25
MOUNT VERNON   LGT RAIN  36  29  75 E7        30.38R WCI  30
PITTSFIELD     CLOUDY    36  32  85 SE14      30.30S WCI  27
QUINCY         LGT RAIN  36  31  82 SE15      30.26S WCI  27
ROCKFORD       CLOUDY    35  21  56 SE16      30.38S WCI  25
$$


CITY           SKY/WX    TMP DP  RH WIND       PRES   REMARKS
BURLINGTON     MIX PCPN  36  30  79 SE15G22   30.26S WCI  27
CEDAR RAPIDS   CLOUDY    37  23  56 SE17      30.21F WCI  27
DES MOINES     CLOUDY    43  25  49 SE17      30.12F
KIRKSVILLE     CLOUDY    39  33  79 SE17      30.18F WCI  30
OTTUMWA        CLOUDY    40  22  48 SE15      30.18S WCI  32
ST LOUIS       CLOUDY    39  32  76 E14       30.30S WCI  31
$$


CITY           SKY/WX    TMP DP  RH WIND       PRES   REMARKS
TERRE HAUTE    SUNNY     35  20  54 SE13      30.40S WCI  26
EVANSVILLE     MOSUNNY   40  21  46 SE8       30.38S WCI  34
INDIANAPOLIS   MOSUNNY   34  19  54 SE12      30.43R WCI  25
LAFAYETTE      CLOUDY    32  22  66 SE9       30.42F WCI  24
MADISON        CLOUDY    33  21  61 SE15      30.33F WCI  23
MILWAUKEE      CLOUDY    35  21  56 SE16      30.41R WCI  25
$$






USA.gov is the U.S. government's official web portal to all federal, state and local government web resources and services.